When you browse on this site, cookies collect data to enhance your experience and personalize the content and advertising you see.
Visit our Privacy Policy to learn more. By continuing to use the site, you agree to this use of cookies and data.
EN

Hourly Weather Etchmiadzin

Today, 8 August, Saturday

Time Temperature Precipitation Wind Pressure Humidity
00:00 +23°C° 0 mm 2 mps 687 mmHg 49%
01:00 +21°C° 0 mm 2 mps 687 mmHg 49%
02:00 +21°C° 0 mm 1 mps 686 mmHg 49%
03:00 +21°C° 0 mm 1 mps 686 mmHg 49%
04:00 +21°C° 0 mm 1 mps 686 mmHg 49%
05:00 +21°C° 0 mm 1 mps 686 mmHg 49%
06:00 +22°C° 0 mm 1 mps 686 mmHg 49%
07:00 +24°C° 0 mm 1 mps 686 mmHg 44%
08:00 +26°C° 0 mm 1 mps 687 mmHg 40%
09:00 +28°C° 0 mm 1 mps 687 mmHg 36%
10:00 +29°C° 0 mm 2 mps 686 mmHg 33%
11:00 +30°C° 0 mm 2 mps 686 mmHg 31%
12:00 +31°C° 0 mm 2 mps 686 mmHg 28%
13:00 +32°C° 0 mm 2 mps 686 mmHg 26%
14:00 +34°C° 0 mm 2 mps 685 mmHg 23%
15:00 +35°C° 0 mm 2 mps 685 mmHg 21%
16:00 +34°C° 0 mm 2 mps 685 mmHg 23%
17:00 +34°C° 0 mm 3 mps 684 mmHg 24%
18:00 +33°C° 0 mm 3 mps 684 mmHg 26%
19:00 +30°C° 0 mm 3 mps 684 mmHg 32%
20:00 +28°C° 0 mm 3 mps 684 mmHg 39%
21:00 +26°C° 0 mm 4 mps 684 mmHg 45%
22:00 +25°C° 0 mm 3 mps 684 mmHg 46%
23:00 +24°C° 0 mm 2 mps 684 mmHg 48%

Tomorrow, 9 August, Sunday

Time Temperature Precipitation Wind Pressure Humidity
00:00 +23°C° 0 mm 2 mps 684 mmHg 50%
01:00 +23°C° 0 mm 2 mps 683 mmHg 51%
02:00 +21°C° 0 mm 2 mps 683 mmHg 52%
03:00 +22°C° 0 mm 1 mps 683 mmHg 53%
04:00 +22°C° 0 mm 1 mps 683 mmHg 54%
05:00 +22°C° 0 mm 1 mps 683 mmHg 55%
06:00 +22°C° 0 mm 1 mps 683 mmHg 56%
07:00 +25°C° 0 mm 1 mps 683 mmHg 49%
08:00 +27°C° 0 mm 1 mps 683 mmHg 42%
09:00 +29°C° 0 mm 1 mps 684 mmHg 35%
10:00 +30°C° 0 mm 2 mps 684 mmHg 31%
11:00 +32°C° 0 mm 2 mps 683 mmHg 28%
12:00 +34°C° 0 mm 2 mps 683 mmHg 24%
13:00 +35°C° 0 mm 2 mps 683 mmHg 22%
14:00 +36°C° 0 mm 2 mps 683 mmHg 20%
15:00 +37°C° 0 mm 2 mps 682 mmHg 19%
16:00 +36°C° 0 mm 2 mps 682 mmHg 20%
17:00 +36°C° 0 mm 2 mps 682 mmHg 22%
18:00 +35°C° 0 mm 2 mps 682 mmHg 23%
19:00 +32°C° 0 mm 2 mps 682 mmHg 29%
20:00 +30°C° 0 mm 3 mps 682 mmHg 35%
21:00 +27°C° 0 mm 3 mps 682 mmHg 41%
22:00 +27°C° 0 mm 3 mps 682 mmHg 42%
23:00 +26°C° 0 mm 3 mps 682 mmHg 42%

Day after tomorrow, 10 August, Monday

Time Temperature Precipitation Wind Pressure Humidity
00:00 +25°C° 0 mm 2 mps 682 mmHg 43%
01:00 +25°C° 0 mm 2 mps 682 mmHg 45%
02:00 +24°C° 0 mm 2 mps 682 mmHg 47%
03:00 +23°C° 0 mm 1 mps 682 mmHg 48%
04:00 +24°C° 0 mm 1 mps 682 mmHg 50%
05:00 +24°C° 0 mm 1 mps 682 mmHg 51%
06:00 +24°C° 0 mm 1 mps 682 mmHg 53%
07:00 +26°C° 0 mm 1 mps 682 mmHg 45%
08:00 +29°C° 0 mm 1 mps 683 mmHg 38%
09:00 +31°C° 0 mm 1 mps 683 mmHg 31%
10:00 +34°C° 0 mm 2 mps 683 mmHg 27%
11:00 +35°C° 0 mm 2 mps 683 mmHg 23%
12:00 +37°C° 0 mm 2 mps 683 mmHg 20%
13:00 +38°C° 0 mm 2 mps 683 mmHg 18%
14:00 +38°C° 0 mm 2 mps 682 mmHg 17%
15:00 +39°C° 0 mm 2 mps 682 mmHg 15%
16:00 +38°C° 0 mm 3 mps 682 mmHg 19%
17:00 +37°C° 0 mm 3 mps 682 mmHg 22%
18:00 +37°C° 0 mm 4 mps 682 mmHg 26%
19:00 +34°C° 0 mm 4 mps 682 mmHg 32%
20:00 +32°C° 0 mm 4 mps 682 mmHg 39%
21:00 +28°C° 0 mm 5 mps 682 mmHg 46%
22:00 +27°C° 0 mm 4 mps 682 mmHg 47%
23:00 +26°C° 0 mm 3 mps 682 mmHg 49%

11 August, Tuesday

Time Temperature Precipitation Wind Pressure Humidity
00:00 +26°C° 0 mm 3 mps 683 mmHg 50%
01:00 +25°C° 0 mm 3 mps 683 mmHg 51%
02:00 +24°C° 0 mm 3 mps 683 mmHg 53%
03:00 +24°C° 0 mm 3 mps 683 mmHg 54%
04:00 +24°C° 0 mm 3 mps 683 mmHg 55%
05:00 +24°C° 0 mm 2 mps 683 mmHg 55%
06:00 +24°C° 0 mm 2 mps 683 mmHg 55%
07:00 +26°C° 0 mm 2 mps 683 mmHg 50%
08:00 +28°C° 0 mm 2 mps 683 mmHg 44%
09:00 +30°C° 0 mm 2 mps 684 mmHg 38%
10:00 +31°C° 0 mm 2 mps 684 mmHg 34%
11:00 +34°C° 0 mm 2 mps 684 mmHg 30%
12:00 +36°C° 0 mm 2 mps 684 mmHg 25%
13:00 +36°C° 0 mm 2 mps 683 mmHg 23%
14:00 +36°C° 0 mm 1 mps 683 mmHg 20%
15:00 +37°C° 0 mm 1 mps 683 mmHg 18%
16:00 +37°C° 0 mm 2 mps 683 mmHg 21%
17:00 +36°C° 0 mm 3 mps 683 mmHg 24%
18:00 +36°C° 0 mm 3 mps 683 mmHg 27%
19:00 +33°C° 0 mm 3 mps 683 mmHg 33%
20:00 +30°C° 0 mm 4 mps 683 mmHg 39%
21:00 +27°C° 0 mm 4 mps 683 mmHg 45%
22:00 +27°C° 0 mm 4 mps 683 mmHg 47%
23:00 +26°C° 0 mm 4 mps 683 mmHg 48%

12 August, Wednesday

Time Temperature Precipitation Wind Pressure Humidity
00:00 +25°C° 0 mm 3 mps 683 mmHg 49%
01:00 +25°C° 0 mm 3 mps 683 mmHg 51%
02:00 +24°C° 0 mm 3 mps 683 mmHg 52%
03:00 +24°C° 0 mm 3 mps 683 mmHg 54%
04:00 +24°C° 0 mm 3 mps 683 mmHg 54%
05:00 +24°C° 0 mm 3 mps 683 mmHg 55%
06:00 +24°C° 0 mm 2 mps 683 mmHg 56%
07:00 +26°C° 0 mm 2 mps 684 mmHg 50%
08:00 +28°C° 0 mm 2 mps 684 mmHg 44%
09:00 +30°C° 0 mm 2 mps 684 mmHg 38%
10:00 +31°C° 0 mm 2 mps 684 mmHg 36%
11:00 +33°C° 0 mm 1 mps 684 mmHg 33%
12:00 +34°C° 0 mm 1 mps 684 mmHg 30%
13:00 +36°C° 0 mm 2 mps 684 mmHg 29%
14:00 +36°C° 0 mm 2 mps 683 mmHg 27%
15:00 +37°C° 0 mm 3 mps 683 mmHg 26%
16:00 +36°C° 0 mm 3 mps 683 mmHg 29%
17:00 +35°C° 0 mm 4 mps 683 mmHg 32%
18:00 +34°C° 0 mm 4 mps 683 mmHg 36%
19:00 +32°C° 0 mm 4 mps 683 mmHg 40%
20:00 +29°C° 0 mm 4 mps 683 mmHg 45%
21:00 +27°C° 0 mm 4 mps 683 mmHg 50%
22:00 +27°C° 0 mm 3 mps 683 mmHg 52%
23:00 +26°C° 0 mm 3 mps 683 mmHg 55%

13 August, Thursday

Time Temperature Precipitation Wind Pressure Humidity
00:00 +25°C° 0 mm 2 mps 683 mmHg 57%
01:00 +24°C° 0 mm 2 mps 683 mmHg 58%
02:00 +24°C° 0 mm 2 mps 682 mmHg 59%
03:00 +23°C° 0 mm 2 mps 682 mmHg 60%
04:00 +23°C° 0 mm 2 mps 682 mmHg 60%
05:00 +24°C° 0 mm 2 mps 683 mmHg 59%
06:00 +24°C° 0 mm 1 mps 683 mmHg 58%
07:00 +26°C° 0 mm 1 mps 683 mmHg 52%
08:00 +28°C° 0 mm 1 mps 683 mmHg 46%
09:00 +30°C° 0 mm 1 mps 683 mmHg 40%
10:00 +31°C° 0 mm 1 mps 683 mmHg 37%
11:00 +32°C° 0 mm 2 mps 683 mmHg 33%
12:00 +35°C° 0 mm 2 mps 682 mmHg 30%
13:00 +36°C° 0 mm 2 mps 682 mmHg 28%
14:00 +36°C° 0 mm 2 mps 682 mmHg 26%
15:00 +36°C° 0 mm 1 mps 681 mmHg 25%
16:00 +36°C° 0 mm 2 mps 681 mmHg 27%
17:00 +36°C° 0 mm 3 mps 681 mmHg 30%
18:00 +35°C° 0 mm 3 mps 681 mmHg 33%
19:00 +33°C° 0.1 mm 4 mps 682 mmHg 38%
20:00 +29°C° 0.1 mm 4 mps 682 mmHg 44%
21:00 +27°C° 0.1 mm 4 mps 682 mmHg 49%
22:00 +27°C° 0 mm 4 mps 682 mmHg 48%
23:00 +27°C° 0 mm 4 mps 682 mmHg 48%
Show more